Year,Month,Day,Hour,Minute,Value (Times are PST for temperature in C)
2015,02,17,00,00,2.00
2015,02,17,00,01,2.00
2015,02,17,00,02,2.00
2015,02,17,00,03,2.00
2015,02,17,00,04,2.00
2015,02,17,00,05,1.90
2015,02,17,00,06,1.90
2015,02,17,00,07,1.90
2015,02,17,00,08,1.90
2015,02,17,00,09,1.90
2015,02,17,00,10,1.90
2015,02,17,00,11,1.90
2015,02,17,00,12,1.90
2015,02,17,00,13,1.90
2015,02,17,00,14,1.90
2015,02,17,00,15,1.90
2015,02,17,00,16,1.90
2015,02,17,00,17,1.90
2015,02,17,00,18,1.90
2015,02,17,00,19,1.80
2015,02,17,00,20,1.80
2015,02,17,00,21,1.80
2015,02,17,00,22,1.80
2015,02,17,00,23,1.80
2015,02,17,00,24,1.80
2015,02,17,00,25,1.80
2015,02,17,00,26,1.80
2015,02,17,00,27,1.70
2015,02,17,00,28,1.70
2015,02,17,00,29,1.70
2015,02,17,00,30,1.70
2015,02,17,00,31,1.70
2015,02,17,00,32,1.70
2015,02,17,00,33,1.70
2015,02,17,00,34,1.70
2015,02,17,00,35,1.70
2015,02,17,00,36,1.70
2015,02,17,00,37,1.60
2015,02,17,00,38,1.60
2015,02,17,00,39,1.60
2015,02,17,00,40,1.60
2015,02,17,00,41,1.60
2015,02,17,00,43,1.60
2015,02,17,00,44,1.60
2015,02,17,00,45,1.60
2015,02,17,00,46,1.60
2015,02,17,00,47,1.60
2015,02,17,00,48,1.60
2015,02,17,00,49,1.60
2015,02,17,00,50,1.50
2015,02,17,00,51,1.50
2015,02,17,00,52,1.50
2015,02,17,00,53,1.50
2015,02,17,00,54,1.50
2015,02,17,00,56,1.50
2015,02,17,00,57,1.50
2015,02,17,00,58,1.50
2015,02,17,01,00,1.50
2015,02,17,01,02,1.40
2015,02,17,01,03,1.40
2015,02,17,01,04,1.40
2015,02,17,01,05,1.40
2015,02,17,01,06,1.40
2015,02,17,01,07,1.50
2015,02,17,01,08,1.50
2015,02,17,01,09,1.50
2015,02,17,01,10,1.60
2015,02,17,01,11,1.60
2015,02,17,01,12,1.60
2015,02,17,01,13,1.60
2015,02,17,01,14,1.60
2015,02,17,01,15,1.60
2015,02,17,01,16,1.60
2015,02,17,01,17,1.60
2015,02,17,01,18,1.60
2015,02,17,01,19,1.60
2015,02,17,01,20,1.60
2015,02,17,01,21,1.70
2015,02,17,01,22,1.70
2015,02,17,01,23,1.70
2015,02,17,01,25,1.70
2015,02,17,01,26,1.70
2015,02,17,01,27,1.70
2015,02,17,01,28,1.70
2015,02,17,01,29,1.70
2015,02,17,01,30,1.70
2015,02,17,01,31,1.80
2015,02,17,01,32,1.80
2015,02,17,01,33,1.80
2015,02,17,01,34,1.80
2015,02,17,01,35,1.80
2015,02,17,01,36,1.80
2015,02,17,01,37,1.80
2015,02,17,01,38,1.80
2015,02,17,01,39,1.80
2015,02,17,01,40,1.90
2015,02,17,01,41,1.90
2015,02,17,01,42,1.90
2015,02,17,01,43,1.90
2015,02,17,01,44,1.90
2015,02,17,01,45,1.90
2015,02,17,01,46,1.90
2015,02,17,01,47,1.90
2015,02,17,01,48,1.90
2015,02,17,01,49,1.90
2015,02,17,01,50,1.90
2015,02,17,01,51,1.90
2015,02,17,01,52,1.90
2015,02,17,01,53,1.90
2015,02,17,01,54,1.90
2015,02,17,01,55,1.90
2015,02,17,01,56,1.90
2015,02,17,01,57,1.90
2015,02,17,01,58,1.90
2015,02,17,01,59,1.90
2015,02,17,02,00,1.90
2015,02,17,02,01,1.90
2015,02,17,02,02,1.90
2015,02,17,02,03,1.90
2015,02,17,02,04,1.90
2015,02,17,02,05,1.90
2015,02,17,02,06,1.90
2015,02,17,02,07,1.90
2015,02,17,02,08,2.00
2015,02,17,02,09,2.00
2015,02,17,02,10,2.00
2015,02,17,02,11,1.90
2015,02,17,02,12,2.00
2015,02,17,02,13,2.00
2015,02,17,02,14,1.90
2015,02,17,02,16,1.90
2015,02,17,02,17,1.90
2015,02,17,02,18,1.90
2015,02,17,02,19,1.90
2015,02,17,02,20,1.90
2015,02,17,02,21,1.90
2015,02,17,02,22,1.90
2015,02,17,02,23,1.90
2015,02,17,02,24,1.90
2015,02,17,02,25,1.90
2015,02,17,02,26,1.90
2015,02,17,02,27,1.90
2015,02,17,02,28,1.90
2015,02,17,02,29,1.90
2015,02,17,02,30,1.90
2015,02,17,02,31,1.90
2015,02,17,02,32,1.90
2015,02,17,02,33,1.90
2015,02,17,02,34,1.90
2015,02,17,02,35,1.90
2015,02,17,02,36,1.80
2015,02,17,02,37,1.80
2015,02,17,02,39,1.80
2015,02,17,02,40,1.80
2015,02,17,02,41,1.80
2015,02,17,02,42,1.80
2015,02,17,02,43,1.80
2015,02,17,02,44,1.80
2015,02,17,02,45,1.80
2015,02,17,02,46,1.80
2015,02,17,02,47,1.80
2015,02,17,02,48,1.80
2015,02,17,02,49,1.80
2015,02,17,02,50,1.80
2015,02,17,02,51,1.80
2015,02,17,02,52,1.80
2015,02,17,02,54,1.80
2015,02,17,02,55,1.80
2015,02,17,02,56,1.80
2015,02,17,02,57,1.80
2015,02,17,02,58,1.80
2015,02,17,02,59,1.80
2015,02,17,03,00,1.80
2015,02,17,03,01,1.80
2015,02,17,03,02,1.80
2015,02,17,03,03,1.80
2015,02,17,03,04,1.80
2015,02,17,03,05,1.80
2015,02,17,03,06,1.80
2015,02,17,03,07,1.80
2015,02,17,03,08,1.80
2015,02,17,03,09,1.80
2015,02,17,03,10,1.80
2015,02,17,03,11,1.80
2015,02,17,03,12,1.80
2015,02,17,03,13,1.80
2015,02,17,03,14,1.70
2015,02,17,03,15,1.70
2015,02,17,03,17,1.70
2015,02,17,03,18,1.70
2015,02,17,03,19,1.70
2015,02,17,03,20,1.70
2015,02,17,03,21,1.70
2015,02,17,03,22,1.70
2015,02,17,03,23,1.70
2015,02,17,03,24,1.70
2015,02,17,03,25,1.70
2015,02,17,03,26,1.70
2015,02,17,03,27,1.70
2015,02,17,03,28,1.70
2015,02,17,03,29,1.70
2015,02,17,03,30,1.70
2015,02,17,03,31,1.70
2015,02,17,03,32,1.70
2015,02,17,03,33,1.70
2015,02,17,03,34,1.70
2015,02,17,03,35,1.70
2015,02,17,03,36,1.70
2015,02,17,03,37,1.70
2015,02,17,03,38,1.70
2015,02,17,03,39,1.60
2015,02,17,03,40,1.70
2015,02,17,03,41,1.60
2015,02,17,03,42,1.70
2015,02,17,03,43,1.70
2015,02,17,03,44,1.70
2015,02,17,03,45,1.70
2015,02,17,03,46,1.70
2015,02,17,03,47,1.70
2015,02,17,03,48,1.70
2015,02,17,03,49,1.70
2015,02,17,03,50,1.70
2015,02,17,03,51,1.60
2015,02,17,03,52,1.60
2015,02,17,03,53,1.60
2015,02,17,03,54,1.60
2015,02,17,03,55,1.60
2015,02,17,03,56,1.60
2015,02,17,03,57,1.60
2015,02,17,03,58,1.60
2015,02,17,03,59,1.60
2015,02,17,04,00,1.60
2015,02,17,04,01,1.60
2015,02,17,04,02,1.60
2015,02,17,04,03,1.60
2015,02,17,04,04,1.60
2015,02,17,04,05,1.60
2015,02,17,04,06,1.60
2015,02,17,04,07,1.60
2015,02,17,04,08,1.60
2015,02,17,04,09,1.60
2015,02,17,04,10,1.50
2015,02,17,04,11,1.50
2015,02,17,04,12,1.50
2015,02,17,04,13,1.50
2015,02,17,04,14,1.50
2015,02,17,04,15,1.50
2015,02,17,04,16,1.50
2015,02,17,04,17,1.40
2015,02,17,04,18,1.40
2015,02,17,04,19,1.40
2015,02,17,04,20,1.40
2015,02,17,04,21,1.40
2015,02,17,04,22,1.40
2015,02,17,04,23,1.40
2015,02,17,04,24,1.30
2015,02,17,04,25,1.30
2015,02,17,04,26,1.30
2015,02,17,04,27,1.30
2015,02,17,04,28,1.30
2015,02,17,04,29,1.30
2015,02,17,04,30,1.30
2015,02,17,04,31,1.20
2015,02,17,04,32,1.20
2015,02,17,04,33,1.20
2015,02,17,04,34,1.20
2015,02,17,04,35,1.20
2015,02,17,04,36,1.10
2015,02,17,04,37,1.10
2015,02,17,04,38,1.10
2015,02,17,04,39,1.10
2015,02,17,04,40,1.00
2015,02,17,04,41,1.00
2015,02,17,04,42,1.00
2015,02,17,04,43,1.00
2015,02,17,04,44,0.90
2015,02,17,04,45,0.90
2015,02,17,04,46,0.90
2015,02,17,04,47,0.90
2015,02,17,04,48,0.90
2015,02,17,04,49,0.90
2015,02,17,04,50,0.80
2015,02,17,04,51,0.80
2015,02,17,04,52,0.80
2015,02,17,04,53,0.80
2015,02,17,04,54,0.80
2015,02,17,04,55,0.80
2015,02,17,04,56,0.80
2015,02,17,04,57,0.80
2015,02,17,04,58,0.80
2015,02,17,04,59,0.80
2015,02,17,05,00,0.80
2015,02,17,05,01,0.80
2015,02,17,05,02,0.80
2015,02,17,05,03,0.80
2015,02,17,05,04,0.80
2015,02,17,05,05,0.70
2015,02,17,05,06,0.70
2015,02,17,05,07,0.70
2015,02,17,05,08,0.70
2015,02,17,05,09,0.70
2015,02,17,05,10,0.70
2015,02,17,05,11,0.70
2015,02,17,05,12,0.70
2015,02,17,05,13,0.70
2015,02,17,05,14,0.70
2015,02,17,05,15,0.70
2015,02,17,05,16,0.80
2015,02,17,05,17,0.80
2015,02,17,05,18,0.80
2015,02,17,05,19,0.80
2015,02,17,05,20,0.80
2015,02,17,05,21,0.80
2015,02,17,05,22,0.80
2015,02,17,05,23,0.80
2015,02,17,05,24,0.80
2015,02,17,05,25,0.80
2015,02,17,05,26,0.80
2015,02,17,05,27,0.80
2015,02,17,05,28,0.80
2015,02,17,05,29,0.90
2015,02,17,05,30,0.90
2015,02,17,05,31,0.90
2015,02,17,05,33,0.80
2015,02,17,05,34,0.80
2015,02,17,05,35,0.80
2015,02,17,05,36,0.80
2015,02,17,05,37,0.80
2015,02,17,05,38,0.80
2015,02,17,05,40,0.80
2015,02,17,05,41,0.80
2015,02,17,05,42,0.80
2015,02,17,05,43,0.80
2015,02,17,05,44,0.70
2015,02,17,05,45,0.70
2015,02,17,05,46,0.70
2015,02,17,05,47,0.70
2015,02,17,05,48,0.70
2015,02,17,05,49,0.70
2015,02,17,05,51,0.60
2015,02,17,05,52,0.60
2015,02,17,05,53,0.60
2015,02,17,05,54,0.60
2015,02,17,05,55,0.50
2015,02,17,05,56,0.50
2015,02,17,05,57,0.50
2015,02,17,05,58,0.40
2015,02,17,05,59,0.40
2015,02,17,06,00,0.40
2015,02,17,06,01,0.40
2015,02,17,06,02,0.30
2015,02,17,06,04,0.30
2015,02,17,06,05,0.30
2015,02,17,06,06,0.30
2015,02,17,06,07,0.30
2015,02,17,06,08,0.30
2015,02,17,06,09,0.30
2015,02,17,06,10,0.30
2015,02,17,06,11,0.20
2015,02,17,06,12,0.20
2015,02,17,06,13,0.20
2015,02,17,06,14,0.20
2015,02,17,06,15,0.20
2015,02,17,06,16,0.20
2015,02,17,06,17,0.20
2015,02,17,06,18,0.20
2015,02,17,06,19,0.20
2015,02,17,06,21,0.10
2015,02,17,06,22,0.10
2015,02,17,06,23,0.10
2015,02,17,06,24,0.10
2015,02,17,06,25,0.10
2015,02,17,06,26,0.10
2015,02,17,06,27,0.10
2015,02,17,06,28,0.10
2015,02,17,06,29,0.10
2015,02,17,06,30,0.10
2015,02,17,06,31,0.10
2015,02,17,06,32,0.10
2015,02,17,06,33,0.10
2015,02,17,06,34,0.10
2015,02,17,06,35,0.10
2015,02,17,06,36,0.10
2015,02,17,06,37,0.10
2015,02,17,06,38,0.10
2015,02,17,06,39,0.10
2015,02,17,06,40,0.10
2015,02,17,06,41,0.10
2015,02,17,06,42,0.10
2015,02,17,06,43,0.20
2015,02,17,06,44,0.20
2015,02,17,06,45,0.20
2015,02,17,06,46,0.20
2015,02,17,06,48,0.20
2015,02,17,06,49,0.20
2015,02,17,06,50,0.20
2015,02,17,06,51,0.20
2015,02,17,06,52,0.20
2015,02,17,06,53,0.20
2015,02,17,06,54,0.20
2015,02,17,06,55,0.20
2015,02,17,06,56,0.20
2015,02,17,06,57,0.20
2015,02,17,06,58,0.20
2015,02,17,06,59,0.20
2015,02,17,07,00,0.20
2015,02,17,07,01,0.10
2015,02,17,07,02,0.10
2015,02,17,07,03,0.10
2015,02,17,07,04,0.10
2015,02,17,07,05,0.10
2015,02,17,07,06,0.10
2015,02,17,07,07,0.00
2015,02,17,07,08,0.00
2015,02,17,07,09,0.00
2015,02,17,07,10,0.00
2015,02,17,07,11,0.00
2015,02,17,07,12,0.00
2015,02,17,07,13,0.00
2015,02,17,07,14,-0.10
2015,02,17,07,15,-0.10
2015,02,17,07,16,-0.10
2015,02,17,07,17,-0.10
2015,02,17,07,18,-0.10
2015,02,17,07,19,-0.10
2015,02,17,07,20,-0.10
2015,02,17,07,21,-0.10
2015,02,17,07,22,-0.10
2015,02,17,07,23,-0.10
2015,02,17,07,24,-0.10
2015,02,17,07,25,-0.10
2015,02,17,07,26,-0.10
2015,02,17,07,27,-0.10
2015,02,17,07,28,-0.10
2015,02,17,07,29,-0.10
2015,02,17,07,30,-0.10
2015,02,17,07,31,-0.10
2015,02,17,07,32,-0.10
2015,02,17,07,33,-0.10
2015,02,17,07,34,-0.10
2015,02,17,07,35,-0.10
2015,02,17,07,36,-0.10
2015,02,17,07,37,-0.20
2015,02,17,07,38,-0.20
2015,02,17,07,39,-0.20
2015,02,17,07,40,-0.20
2015,02,17,07,41,-0.20
2015,02,17,07,42,-0.20
2015,02,17,07,43,-0.20
2015,02,17,07,44,-0.20
2015,02,17,07,45,-0.20
2015,02,17,07,46,-0.20
2015,02,17,07,47,-0.20
2015,02,17,07,48,-0.20
2015,02,17,07,49,-0.20
2015,02,17,07,50,-0.20
2015,02,17,07,52,-0.20
2015,02,17,07,53,-0.20
2015,02,17,07,54,-0.20
2015,02,17,07,55,-0.20
2015,02,17,07,56,-0.20
2015,02,17,07,57,-0.20
2015,02,17,07,58,-0.20
2015,02,17,07,59,-0.20
2015,02,17,08,00,-0.20
2015,02,17,08,02,-0.20
2015,02,17,08,03,-0.10
2015,02,17,08,04,-0.10
2015,02,17,08,05,-0.20
2015,02,17,08,06,-0.20
2015,02,17,08,08,-0.20
2015,02,17,08,09,-0.10
2015,02,17,08,10,-0.20
2015,02,17,08,11,-0.20
2015,02,17,08,12,-0.20
2015,02,17,08,13,-0.20
2015,02,17,08,14,-0.20
2015,02,17,08,15,-0.20
2015,02,17,08,16,-0.20
2015,02,17,08,17,-0.20
2015,02,17,08,18,-0.20
2015,02,17,08,19,-0.20
2015,02,17,08,20,-0.20
2015,02,17,08,21,-0.20
2015,02,17,08,22,-0.20
2015,02,17,08,23,-0.10
2015,02,17,08,24,-0.20
2015,02,17,08,26,-0.20
2015,02,17,08,27,-0.20
2015,02,17,08,28,-0.20
2015,02,17,08,29,-0.20
2015,02,17,08,30,-0.20
2015,02,17,08,31,-0.20
2015,02,17,08,32,-0.20
2015,02,17,08,33,-0.20
2015,02,17,08,34,-0.20
2015,02,17,08,35,-0.20
2015,02,17,08,36,-0.20
2015,02,17,08,37,-0.20
2015,02,17,08,38,-0.20
2015,02,17,08,39,-0.10
2015,02,17,08,40,-0.10
2015,02,17,08,41,-0.10
2015,02,17,08,42,-0.10
2015,02,17,08,43,-0.20
2015,02,17,08,44,-0.10
2015,02,17,08,45,-0.10
2015,02,17,08,46,-0.10
2015,02,17,08,47,-0.10
2015,02,17,08,48,-0.10
2015,02,17,08,49,-0.10
2015,02,17,08,50,-0.10
2015,02,17,08,51,-0.10
2015,02,17,08,52,-0.10
2015,02,17,08,53,-0.10
2015,02,17,08,54,-0.10
2015,02,17,08,55,-0.10
2015,02,17,08,56,-0.10
2015,02,17,08,57,-0.10
2015,02,17,08,58,-0.10
2015,02,17,08,59,0.00
2015,02,17,09,00,0.00
2015,02,17,09,01,0.00
2015,02,17,09,02,0.00
2015,02,17,09,03,0.00
2015,02,17,09,04,0.10
2015,02,17,09,05,0.10
2015,02,17,09,06,0.10
2015,02,17,09,07,0.10
2015,02,17,09,08,0.10
2015,02,17,09,09,0.20
2015,02,17,09,10,0.20
2015,02,17,09,11,0.20
2015,02,17,09,12,0.20
2015,02,17,09,13,0.20
2015,02,17,09,14,0.30
2015,02,17,09,15,0.30
2015,02,17,09,16,0.30
2015,02,17,09,17,0.30
2015,02,17,09,18,0.30
2015,02,17,09,19,0.30
2015,02,17,09,20,0.30
2015,02,17,09,21,0.30
2015,02,17,09,22,0.30
2015,02,17,09,23,0.30
2015,02,17,09,24,0.30
2015,02,17,09,25,0.30
2015,02,17,09,26,0.30
2015,02,17,09,27,0.30
2015,02,17,09,28,0.30
2015,02,17,09,29,0.40
2015,02,17,09,30,0.40
2015,02,17,09,31,0.40
2015,02,17,09,32,0.40
2015,02,17,09,33,0.40
2015,02,17,09,34,0.40
2015,02,17,09,35,0.40
2015,02,17,09,36,0.50
2015,02,17,09,37,0.50
2015,02,17,09,38,0.50
2015,02,17,09,39,0.60
2015,02,17,09,40,0.60
2015,02,17,09,41,0.60
2015,02,17,09,42,0.70
2015,02,17,09,43,0.70
2015,02,17,09,44,0.70
2015,02,17,09,45,0.70
2015,02,17,09,46,0.70
2015,02,17,09,47,0.80
2015,02,17,09,48,0.80
2015,02,17,09,49,0.80
2015,02,17,09,50,0.80
2015,02,17,09,51,0.80
2015,02,17,09,52,0.80
2015,02,17,09,53,0.80
2015,02,17,09,54,0.80
2015,02,17,09,55,0.80
2015,02,17,09,56,0.80
2015,02,17,09,57,0.80
2015,02,17,09,58,0.80
2015,02,17,09,59,0.80
2015,02,17,10,00,0.90
2015,02,17,10,01,0.90
2015,02,17,10,02,1.00
2015,02,17,10,03,1.10
2015,02,17,10,05,1.20
2015,02,17,10,06,1.30
2015,02,17,10,07,1.40
2015,02,17,10,08,1.40
2015,02,17,10,09,1.50
2015,02,17,10,10,1.60
2015,02,17,10,11,1.70
2015,02,17,10,12,1.70
2015,02,17,10,13,1.70
2015,02,17,10,14,1.70
2015,02,17,10,15,1.70
2015,02,17,10,16,1.80
2015,02,17,10,17,1.90
2015,02,17,10,18,2.00
2015,02,17,10,19,2.10
2015,02,17,10,20,2.20
2015,02,17,10,21,2.20
2015,02,17,10,22,2.20
2015,02,17,10,23,2.30
2015,02,17,10,24,2.30
2015,02,17,10,25,2.30
2015,02,17,10,26,2.30
2015,02,17,10,27,2.30
2015,02,17,10,28,2.30
2015,02,17,10,29,2.30
2015,02,17,10,30,2.30
2015,02,17,10,31,2.20
2015,02,17,10,32,2.20
2015,02,17,10,33,2.10
2015,02,17,10,34,2.10
2015,02,17,10,35,2.10
2015,02,17,10,36,2.10
2015,02,17,10,37,2.10
2015,02,17,10,38,2.10
2015,02,17,10,39,2.10
2015,02,17,10,40,2.20
2015,02,17,10,41,2.20
2015,02,17,10,42,2.20
2015,02,17,10,43,2.30
2015,02,17,10,44,2.40
2015,02,17,10,45,2.50
2015,02,17,10,46,2.70
2015,02,17,10,47,2.80
2015,02,17,10,48,2.90
2015,02,17,10,49,3.00
2015,02,17,10,50,3.10
2015,02,17,10,51,3.20
2015,02,17,10,52,3.30
2015,02,17,10,53,3.30
2015,02,17,10,54,3.30
2015,02,17,10,55,3.40
2015,02,17,10,56,3.40
2015,02,17,10,57,3.50
2015,02,17,10,58,3.60
2015,02,17,10,59,3.70
2015,02,17,11,00,3.70
2015,02,17,11,01,3.70
2015,02,17,11,02,3.70
2015,02,17,11,03,3.70
2015,02,17,11,04,3.70
2015,02,17,11,05,3.70
2015,02,17,11,06,3.80
2015,02,17,11,07,3.90
2015,02,17,11,08,3.90
2015,02,17,11,09,4.10
2015,02,17,11,10,4.10
2015,02,17,11,11,4.20
2015,02,17,11,12,4.20
2015,02,17,11,13,4.30
2015,02,17,11,14,4.30
2015,02,17,11,15,4.40
2015,02,17,11,16,4.40
2015,02,17,11,17,4.40
2015,02,17,11,18,4.50
2015,02,17,11,19,4.50
2015,02,17,11,20,4.60
2015,02,17,11,21,4.70
2015,02,17,11,22,4.70
2015,02,17,11,23,4.70
2015,02,17,11,24,4.70
2015,02,17,11,25,4.70
2015,02,17,11,26,4.60
2015,02,17,11,27,4.60
2015,02,17,11,28,4.60
2015,02,17,11,29,4.60
2015,02,17,11,30,4.60
2015,02,17,11,31,4.60
2015,02,17,11,32,4.60
2015,02,17,11,33,4.70
2015,02,17,11,34,4.70
2015,02,17,11,35,4.70
2015,02,17,11,36,4.70
2015,02,17,11,37,4.70
2015,02,17,11,39,4.80
2015,02,17,11,40,4.90
2015,02,17,11,41,5.10
2015,02,17,11,42,5.10
2015,02,17,11,43,5.10
2015,02,17,11,44,5.20
2015,02,17,11,45,5.20
2015,02,17,11,46,5.30
2015,02,17,11,47,5.30
2015,02,17,11,48,5.40
2015,02,17,11,49,5.50
2015,02,17,11,50,5.60
2015,02,17,11,51,5.70
2015,02,17,11,52,5.80
2015,02,17,11,53,5.90
2015,02,17,11,54,6.00
2015,02,17,11,55,6.10
2015,02,17,11,56,6.20
2015,02,17,11,57,6.30
2015,02,17,11,58,6.40
2015,02,17,11,59,6.60
2015,02,17,12,00,6.70
2015,02,17,12,01,6.80
2015,02,17,12,02,6.80
2015,02,17,12,03,6.90
2015,02,17,12,04,6.90
2015,02,17,12,05,7.00
2015,02,17,12,06,7.10
2015,02,17,12,07,7.10
2015,02,17,12,08,7.10
2015,02,17,12,09,7.20
2015,02,17,12,10,7.20
2015,02,17,12,11,7.20
2015,02,17,12,12,7.20
2015,02,17,12,13,7.20
2015,02,17,12,14,7.20
2015,02,17,12,15,7.20
2015,02,17,12,16,7.30
2015,02,17,12,17,7.30
2015,02,17,12,18,7.30
2015,02,17,12,19,7.40
2015,02,17,12,20,7.40
2015,02,17,12,21,7.50
2015,02,17,12,22,7.60
2015,02,17,12,23,7.70
2015,02,17,12,24,7.80
2015,02,17,12,25,7.80
2015,02,17,12,26,8.00
2015,02,17,12,27,8.10
2015,02,17,12,28,8.20
2015,02,17,12,29,8.30
2015,02,17,12,30,8.40
2015,02,17,12,31,8.60
2015,02,17,12,32,8.60
2015,02,17,12,33,8.70
2015,02,17,12,34,8.80
2015,02,17,12,35,8.80
2015,02,17,12,36,8.80
2015,02,17,12,37,8.80
2015,02,17,12,38,8.90
2015,02,17,12,39,8.90
2015,02,17,12,40,8.90
2015,02,17,12,41,8.90
2015,02,17,12,42,9.00
2015,02,17,12,43,9.00
2015,02,17,12,44,9.10
2015,02,17,12,45,9.10
2015,02,17,12,46,9.20
2015,02,17,12,47,9.20
2015,02,17,12,48,9.30
2015,02,17,12,49,9.40
2015,02,17,12,50,9.50
2015,02,17,12,51,9.60
2015,02,17,12,52,9.70
2015,02,17,12,53,9.70
2015,02,17,12,54,9.80
2015,02,17,12,55,9.80
2015,02,17,12,56,9.80
2015,02,17,12,57,9.80
2015,02,17,12,58,9.80
2015,02,17,12,59,9.90
2015,02,17,13,00,9.90
2015,02,17,13,01,9.80
2015,02,17,13,02,9.80
2015,02,17,13,03,9.80
2015,02,17,13,04,9.80
2015,02,17,13,05,9.80
2015,02,17,13,06,9.80
2015,02,17,13,07,9.80
2015,02,17,13,08,9.80
2015,02,17,13,09,9.80
2015,02,17,13,10,9.80
2015,02,17,13,11,9.80
2015,02,17,13,12,9.80
2015,02,17,13,13,9.80
2015,02,17,13,14,9.80
2015,02,17,13,15,9.90
2015,02,17,13,16,9.90
2015,02,17,13,17,9.90
2015,02,17,13,18,10.00
2015,02,17,13,19,10.00
2015,02,17,13,20,10.10
2015,02,17,13,21,10.10
2015,02,17,13,22,10.10
2015,02,17,13,23,10.10
2015,02,17,13,24,10.10
2015,02,17,13,25,10.10
2015,02,17,13,26,10.10
2015,02,17,13,27,10.10
2015,02,17,13,28,10.10
2015,02,17,13,29,10.10
2015,02,17,13,30,10.20
2015,02,17,13,31,10.20
2015,02,17,13,32,10.20
2015,02,17,13,33,10.20
2015,02,17,13,34,10.30
2015,02,17,13,35,10.30
2015,02,17,13,36,10.30
2015,02,17,13,37,10.30
2015,02,17,13,38,10.40
2015,02,17,13,39,10.40
2015,02,17,13,40,10.60
2015,02,17,13,41,10.70
2015,02,17,13,42,10.70
2015,02,17,13,43,10.80
2015,02,17,13,44,10.90
2015,02,17,13,45,11.00
2015,02,17,13,46,11.00
2015,02,17,13,47,11.00
2015,02,17,13,48,10.90
2015,02,17,13,49,10.90
2015,02,17,13,50,10.90
2015,02,17,13,51,10.80
2015,02,17,13,52,10.80
2015,02,17,13,53,10.80
2015,02,17,13,54,10.80
2015,02,17,13,55,10.80
2015,02,17,13,56,10.90
2015,02,17,13,57,10.90
2015,02,17,13,58,11.10
2015,02,17,13,59,11.10
2015,02,17,14,00,11.20
2015,02,17,14,01,11.30
2015,02,17,14,02,11.40
2015,02,17,14,03,11.40
2015,02,17,14,04,11.50
2015,02,17,14,05,11.60
2015,02,17,14,06,11.60
2015,02,17,14,07,11.70
2015,02,17,14,08,11.80
2015,02,17,14,09,11.90
2015,02,17,14,10,12.10
2015,02,17,14,11,12.20
2015,02,17,14,12,12.30
2015,02,17,14,13,12.40
2015,02,17,14,14,12.50
2015,02,17,14,15,12.60
2015,02,17,14,16,12.70
2015,02,17,14,17,12.80
2015,02,17,14,18,12.90
2015,02,17,14,19,13.10
2015,02,17,14,20,13.20
2015,02,17,14,21,13.20
2015,02,17,14,22,13.30
2015,02,17,14,23,13.40
2015,02,17,14,24,13.40
2015,02,17,14,25,13.50
2015,02,17,14,26,13.60
2015,02,17,14,27,13.60
2015,02,17,14,28,13.60
2015,02,17,14,29,13.50
2015,02,17,14,30,13.40
2015,02,17,14,31,13.40
2015,02,17,14,32,13.40
2015,02,17,14,33,13.40
2015,02,17,14,34,13.40
2015,02,17,14,35,13.40
2015,02,17,14,36,13.40
2015,02,17,14,37,13.50
2015,02,17,14,38,13.50
2015,02,17,14,39,13.50
2015,02,17,14,40,13.50
2015,02,17,14,41,13.50
2015,02,17,14,42,13.60
2015,02,17,14,43,13.60
2015,02,17,14,44,13.60
2015,02,17,14,45,13.70
2015,02,17,14,46,13.70
2015,02,17,14,47,13.70
2015,02,17,14,48,13.70
2015,02,17,14,49,13.80
2015,02,17,14,50,13.80
2015,02,17,14,51,13.90
2015,02,17,14,52,14.00
2015,02,17,14,53,14.00
2015,02,17,14,54,14.10
2015,02,17,14,55,14.10
2015,02,17,14,56,14.20
2015,02,17,14,57,14.20
2015,02,17,14,58,14.30
2015,02,17,14,59,14.30
2015,02,17,15,00,14.40
2015,02,17,15,01,14.40
2015,02,17,15,02,14.50
2015,02,17,15,03,14.60
2015,02,17,15,04,14.70
2015,02,17,15,05,14.70
2015,02,17,15,06,14.80
2015,02,17,15,07,14.80
2015,02,17,15,08,14.80
2015,02,17,15,09,14.80
2015,02,17,15,10,14.80
2015,02,17,15,11,14.70
2015,02,17,15,12,14.70
2015,02,17,15,13,14.60
2015,02,17,15,14,14.60
2015,02,17,15,15,14.60
2015,02,17,15,16,14.50
2015,02,17,15,17,14.40
2015,02,17,15,18,14.40
2015,02,17,15,19,14.40
2015,02,17,15,20,14.40
2015,02,17,15,21,14.40
2015,02,17,15,22,14.40
2015,02,17,15,23,14.40
2015,02,17,15,24,14.50
2015,02,17,15,25,14.60
2015,02,17,15,26,14.60
2015,02,17,15,27,14.60
2015,02,17,15,28,14.50
2015,02,17,15,29,14.60
2015,02,17,15,30,14.60
2015,02,17,15,31,14.60
2015,02,17,15,32,14.60
2015,02,17,15,33,14.60
2015,02,17,15,34,14.60
2015,02,17,15,35,14.70
2015,02,17,15,36,14.70
2015,02,17,15,37,14.80
2015,02,17,15,38,14.80
2015,02,17,15,39,14.90
2015,02,17,15,40,15.00
2015,02,17,15,41,15.10
2015,02,17,15,42,15.10
2015,02,17,15,43,15.20
2015,02,17,15,44,15.20
2015,02,17,15,45,15.30
2015,02,17,15,46,15.40
2015,02,17,15,47,15.40
2015,02,17,15,48,15.50
2015,02,17,15,49,15.60
2015,02,17,15,50,15.60
2015,02,17,15,51,15.50
2015,02,17,15,52,15.50
2015,02,17,15,53,15.40
2015,02,17,15,54,15.30
2015,02,17,15,55,15.30
2015,02,17,15,56,15.20
2015,02,17,15,57,15.20
2015,02,17,15,58,15.20
2015,02,17,15,59,15.20
2015,02,17,16,00,15.20
2015,02,17,16,01,15.20
2015,02,17,16,02,15.20
2015,02,17,16,03,15.10
2015,02,17,16,04,15.10
2015,02,17,16,05,15.00
2015,02,17,16,06,14.90
2015,02,17,16,07,14.80
2015,02,17,16,08,14.80
2015,02,17,16,09,14.70
2015,02,17,16,10,14.70
2015,02,17,16,11,14.70
2015,02,17,16,12,14.70
2015,02,17,16,13,14.70
2015,02,17,16,14,14.70
2015,02,17,16,15,14.70
2015,02,17,16,16,14.70
2015,02,17,16,17,14.60
2015,02,17,16,18,14.60
2015,02,17,16,19,14.50
2015,02,17,16,20,14.40
2015,02,17,16,21,14.40
2015,02,17,16,22,14.40
2015,02,17,16,23,14.30
2015,02,17,16,24,14.30
2015,02,17,16,26,14.20
2015,02,17,16,27,14.20
2015,02,17,16,28,14.20
2015,02,17,16,29,14.10
2015,02,17,16,30,14.10
2015,02,17,16,31,14.10
2015,02,17,16,32,14.00
2015,02,17,16,33,13.90
2015,02,17,16,34,13.90
2015,02,17,16,35,13.90
2015,02,17,16,36,13.80
2015,02,17,16,37,13.80
2015,02,17,16,38,13.80
2015,02,17,16,39,13.80
2015,02,17,16,40,13.80
2015,02,17,16,41,13.80
2015,02,17,16,42,13.70
2015,02,17,16,43,13.70
2015,02,17,16,44,13.70
2015,02,17,16,45,13.70
2015,02,17,16,46,13.70
2015,02,17,16,47,13.60
2015,02,17,16,48,13.60
2015,02,17,16,49,13.60
2015,02,17,16,50,13.50
2015,02,17,16,52,13.50
2015,02,17,16,53,13.40
2015,02,17,16,54,13.40
2015,02,17,16,55,13.30
2015,02,17,16,56,13.30
2015,02,17,16,58,13.20
2015,02,17,16,59,13.10
2015,02,17,17,00,13.10
2015,02,17,17,01,13.00
2015,02,17,17,02,12.90
2015,02,17,17,03,12.80
2015,02,17,17,04,12.80
2015,02,17,17,05,12.80
2015,02,17,17,06,12.70
2015,02,17,17,07,12.70
2015,02,17,17,08,12.70
2015,02,17,17,09,12.60
2015,02,17,17,10,12.60
2015,02,17,17,11,12.60
2015,02,17,17,12,12.50
2015,02,17,19,01,12.40
2015,02,17,23,09,4.70
2015,02,17,23,10,4.70
2015,02,17,23,11,4.70
2015,02,17,23,12,4.70
2015,02,17,23,13,4.70
2015,02,17,23,14,4.70
2015,02,17,23,15,4.60
2015,02,17,23,16,4.60
2015,02,17,23,17,4.60
2015,02,17,23,18,4.60
2015,02,17,23,19,4.60
2015,02,17,23,20,4.60
2015,02,17,23,21,4.60
2015,02,17,23,23,4.60
2015,02,17,23,24,4.60
2015,02,17,23,25,4.60
2015,02,17,23,26,4.50
2015,02,17,23,27,4.40
2015,02,17,23,28,4.40
2015,02,17,23,29,4.40
2015,02,17,23,30,4.40
2015,02,17,23,31,4.40
2015,02,17,23,32,4.30
2015,02,17,23,33,4.30
2015,02,17,23,34,4.30
2015,02,17,23,35,4.30
2015,02,17,23,36,4.30
2015,02,17,23,37,4.20
2015,02,17,23,38,4.20
2015,02,17,23,39,4.20
2015,02,17,23,40,4.20
2015,02,17,23,41,4.20
2015,02,17,23,42,4.20
2015,02,17,23,43,4.20
2015,02,17,23,44,4.20
2015,02,17,23,45,4.10
2015,02,17,23,46,4.10
2015,02,17,23,47,4.10
2015,02,17,23,48,4.10
2015,02,17,23,49,4.10
2015,02,17,23,50,4.10
2015,02,17,23,51,4.10
2015,02,17,23,52,4.10
2015,02,17,23,53,4.10
2015,02,17,23,54,4.10
2015,02,17,23,55,4.10
2015,02,17,23,56,4.10
2015,02,17,23,57,4.10
2015,02,17,23,58,4.10
2015,02,17,23,59,4.10
